Maryland Science Center, MD

4:43 PM EST on December 10, 2019 (GMT -0500)
Maryland Science Center

Weather History for KDMH - October, 2019

Change the Weather History Date:

Thursday, October 10, 2019

  Actual Average Record
Temperature  
Mean Temperature 66 °F 62 °F  
Max Temperature 76 °F 70 °F 86 °F (2011)
Min Temperature 56 °F 54 °F 42 °F (2000)
Degree Days  
Heating Degree Days 0 5  
Month to date heating degree days 10 36  
Since 1 July heating degree days 10 54  
Cooling Degree Days 1 2  
Month to date cooling degree days 56 24  
Year to date cooling degree days 2045 1649  
Growing Degree Days 16 (Base 50)    
Moisture  
Dew Point 49 °F    
Average Humidity 58    
Maximum Humidity 72    
Minimum Humidity 43    
Precipitation  
Precipitation 0.00 in 0.11 in 2.12 in (2013)
Month to date precipitation 0.18 1.11  
Year to date precipitation 31.05 32.57  
Sea Level Pressure  
Sea Level Pressure 30.21 in    
Wind  
Wind Speed - (North)    
Max Wind Speed -    
Max Gust Speed -    
T = Trace of Precipitation, MM = Missing Value Source: NWS Daily Summary

Daily Weather History Graph

Daily Weather History Graph

Search for Another Location

Airport or City:

Astronomy

Oct. 10, 2019 Rise Set
Actual Time 7:10 AM EDT 6:35 PM EDT
Civil Twilight 6:44 AM EDT 7:02 PM EDT
Nautical Twilight 6:13 AM EDT 7:33 PM EDT
Astronomical Twilight 5:41 AM EDT 8:04 PM EDT
Moon 5:34 PM EDT 3:54 AM EDT
Length of Visible Light 12h 18m
Length of Day
11h 24m
Waxing Gibbous, 91% of the Moon is Illuminated
Oct 10
Waxing Gibbous
Oct 13
Full
Oct 21
Last Quarter
Oct 27
New
Nov 4
First Quarter

Hourly Weather History & Observations

Time (EDT) Temp. Dew Point Humidity Pressure Visibility Wind Dir Wind Speed Gust Speed Precip Events Conditions
12:54 AM 57.0 °F 48.0 °F 72% 30.26 in - North - - N/A   Unknown
1:54 AM 57.0 °F 46.9 °F 69% 30.26 in - North - - N/A   Unknown
2:54 AM 57.0 °F 46.0 °F 67% 30.25 in - North - - N/A   Unknown
3:54 AM 57.0 °F 46.0 °F 67% 30.25 in - North - - N/A   Unknown
5:54 AM 57.0 °F 45.0 °F 64% 30.26 in - North - - N/A   Unknown
6:54 AM 57.0 °F 45.0 °F 64% 30.26 in - North - - N/A   Unknown
7:54 AM 57.0 °F 45.0 °F 64% 30.27 in - North - - N/A   Unknown
9:54 AM 61.0 °F 46.0 °F 58% 30.26 in - North - - N/A   Unknown
10:54 AM 64.9 °F 48.0 °F 54% 30.25 in - North - - N/A   Unknown
11:54 AM 68.0 °F 48.0 °F 49% 30.24 in - North - - N/A   Unknown
12:54 PM 71.1 °F 50.0 °F 47% 30.21 in - North - - N/A   Unknown
1:54 PM 73.9 °F 51.1 °F 45% 30.18 in - North - - N/A   Unknown
2:54 PM 73.9 °F 51.1 °F 45% 30.18 in - North - - N/A   Unknown
3:54 PM 75.0 °F 52.0 °F 44% 30.16 in - North - - N/A   Unknown
4:54 PM 75.0 °F 52.0 °F 44% 30.15 in - North - - N/A   Unknown
5:54 PM 73.9 °F 52.0 °F 46% 30.15 in - North - - N/A   Unknown
6:54 PM 72.0 °F 52.0 °F 49% 30.15 in - North - - N/A   Unknown
8:54 PM 69.1 °F 53.1 °F 57% 30.15 in - North - - N/A   Unknown
9:54 PM 68.0 °F 53.1 °F 59% 30.16 in - North - - N/A   Unknown
10:54 PM 66.0 °F 50.0 °F 56% 30.17 in - North - - N/A   Unknown
11:54 PM 64.9 °F 44.1 °F 47% 30.17 in - North - - N/A   Unknown